STARLINK-35644

Last updated on Wed Dec 10 2025 00:02:05 GMT+0000 (Coordinated Universal Time)

1 66402U 25257Y 25343.66668981 .00090979 00000+0 22625-2 0 9998 2 66402 53.1594 278.6656 0001218 96.1432 176.8630 15.39551001 6001
UTC large
Height (km)
Speed (km/s)
/
Latitude / Longitude
Inclination (degrees)
Orbital Period (minutes)
Azimuth
Elevation
Range (km)
Doppler Factor

Next 0 passes for location: London (51.5072 / 0.1276)

Sorry there are no passes over London.